• Currently

    Reported at Minneapolis, Minneapolis-St. Paul International Airport, MN
    4:53 AM CST TUE SEP 19 2017
  • 60°F16°C
  • Overcast
    Overcast
  • Feels Like:60°F16°CDew Point:58°F14°CHumidity:93% Winds:SE 7 mph 11 kph
    Pressure:29.92 in1013.1 hPaVisibility:10.00 miles16090.00 meters
Time Weather Temp Dew Point
Humidity Winds Visibility Pressure Precipitation
1 hr 24 hr
Thursday, September 7
23:53 23:53 Partly Cloudy Partly Cloudy 53°F12°C 48°F9°C 83% NW 5 mphNW 7 kph 10.0 miles16.1 km 30.06 in1018 hPa 0.00 in0.00 mm --
22:53 22:53 Partly Cloudy Partly Cloudy 57°F14°C 47°F8°C 69% NNW 3 mphNNW 6 kph 10.0 miles16.1 km 30.06 in1018 hPa 0.00 in0.00 mm --
21:53 21:53 Mostly Cloudy Mostly Cloudy 59°F15°C 46°F8°C 62% NW 3 mphNW 6 kph 10.0 miles16.1 km 30.06 in1018 hPa 0.00 in0.00 mm --
20:53 20:53 Mostly Cloudy Mostly Cloudy 60°F16°C 44°F7°C 56% NW 6 mphNW 9 kph 10.0 miles16.1 km 30.06 in1018 hPa 0.00 in0.00 mm --
19:53 19:53 Mostly Cloudy Mostly Cloudy 63°F17°C 43°F6°C 48% WNW 8 mphWNW 13 kph 10.0 miles16.1 km 30.06 in1018 hPa 0.00 in0.00 mm --
18:53 18:53 Cloudy Cloudy 65°F18°C 43°F6°C 45% NW 9 mphNW 15 kph 10.0 miles16.1 km 30.06 in1018 hPa 0.00 in0.00 mm --
17:53 17:53 Mostly Cloudy Mostly Cloudy 65°F18°C 45°F7°C 49% NW 9 mphNW 15 kph 10.0 miles16.1 km 30.06 in1018 hPa 0.00 in0.00 mm --
16:53 16:53 Mostly Cloudy Mostly Cloudy 66°F19°C 46°F8°C 49% NW 7 mphNW 11 kph 10.0 miles16.1 km 30.06 in1018 hPa 0.00 in0.00 mm --
15:53 15:53 Cloudy Cloudy 65°F18°C 46°F8°C 51% NW 8 mphNW 13 kph 10.0 miles16.1 km 30.09 in1019 hPa 0.00 in0.00 mm --
14:53 14:53 Mostly Cloudy Mostly Cloudy 65°F18°C 44°F7°C 47% N 6 mphN 9 kph 10.0 miles16.1 km 30.09 in1019 hPa 0.00 in0.00 mm --
13:53 13:53 Mostly Cloudy Mostly Cloudy 67°F19°C 45°F7°C 45% N 6 mphN 9 kph 10.0 miles16.1 km 30.12 in1020 hPa 0.00 in0.00 mm --
12:53 12:53 Mostly Cloudy Mostly Cloudy 66°F19°C 47°F8°C 50% N 10 mphN 17 kph 10.0 miles16.1 km 30.12 in1020 hPa 0.00 in0.00 mm --
11:53 11:53 Mostly Cloudy Mostly Cloudy 65°F18°C 48°F9°C 54% N 7 mphN 11 kph 10.0 miles16.1 km 30.12 in1020 hPa 0.00 in0.00 mm --
10:53 10:53 Partly Cloudy Partly Cloudy 62°F17°C 48°F9°C 60% NW 12 mphNW 19 kph 10.0 miles16.1 km 30.12 in1020 hPa 0.00 in0.00 mm --
09:53 09:53 Partly Cloudy Partly Cloudy 59°F15°C 48°F9°C 67% NNW 9 mphNNW 15 kph 10.0 miles16.1 km 30.12 in1020 hPa 0.00 in0.00 mm --
08:53 08:53 Mostly Sunny Mostly Sunny 57°F14°C 48°F9°C 72% N 8 mphN 13 kph 10.0 miles16.1 km 30.12 in1020 hPa 0.00 in0.00 mm --
07:53 07:53 Mostly Sunny Mostly Sunny 53°F12°C 48°F9°C 83% NNW 7 mphNNW 11 kph 10.0 miles16.1 km 30.12 in1020 hPa 0.00 in0.00 mm --
06:53 06:53 Mostly Sunny Mostly Sunny 50°F10°C 47°F8°C 89% NW 6 mphNW 9 kph 10.0 miles16.1 km 30.12 in1020 hPa 0.00 in0.00 mm --
05:53 05:53 Mostly Clear Mostly Clear 50°F10°C 47°F8°C 89% NW 5 mphNW 7 kph 10.0 miles16.1 km 30.12 in1020 hPa 0.00 in0.00 mm --
04:53 04:53 Mostly Cloudy Mostly Cloudy 51°F11°C 46°F8°C 83% NW 5 mphNW 7 kph 10.0 miles16.1 km 30.09 in1019 hPa 0.00 in0.00 mm --
03:53 03:53 Mostly Cloudy Mostly Cloudy 52°F11°C 46°F8°C 80% N 6 mphN 9 kph 10.0 miles16.1 km 30.09 in1019 hPa 0.00 in0.00 mm --
02:53 02:53 Cloudy Cloudy 54°F12°C 46°F8°C 75% N 7 mphN 11 kph 10.0 miles16.1 km 30.09 in1019 hPa 0.00 in0.00 mm --
01:53 01:53 Mostly Cloudy Mostly Cloudy 54°F12°C 46°F8°C 75% NW 6 mphNW 9 kph 10.0 miles16.1 km 30.09 in1019 hPa 0.00 in0.00 mm --
00:53 00:53 Mostly Cloudy Mostly Cloudy 55°F13°C 46°F8°C 72% NNW 5 mphNNW 7 kph 10.0 miles16.1 km 30.09 in1019 hPa 0.00 in0.00 mm --